Tracking 35237 objects as of 5-Sep-2026
HD Live streaming from Space Station
objects crossing your sky now

MIR DEB


MIR DEB is no longer on orbit


NORAD ID: 25037
Int'l Code: 1986-017MG
Launch date: February 19, 1986
Source: Commonwealth of Independent States (former USSR) (CIS)
Launch site: TYURATAM MISSILE AND SPACE COMPLEX (TTMTR)
Decay date: 1998-02-24

Note: This is SATELLITE DEBRIS
Your satellite tracking list
Your tracking list is empty




NASA's NSSDC Master Catalog

Two Line Element Set (TLE):
1 25037U 86017MG  98042.11348559  .00110356  17693-4  10000-3 0  9998
2 25037 051.6549 313.1743 0019184 147.4347 211.2639 16.11885522 15216
Source of the keplerian elements: AFSPC